Location: Camerons Lookout
(40.9833°S, 175.9333°E)
Time: 14:40:03
(UTC+00:00)

SPOT 5 - Pass Details

Date: 14 January 2026
Orbit: 619 x 802 km, 98.0° (Epoch: 10 February)

Event Time Altitude Azimuth Distance (km) Brightness Sun altitude
Rises 08:34:16 0° 162° (SSE) 3,187 6.5 -7.9°
Reaches altitude 10° 08:36:43 10° 156° (SSE) 2,228 5.6 -8.3°
Maximum altitude 08:41:25 47° 82° (E) 918 3.1 -9.0°
Drops below altitude 10° 08:45:49 10° 7° (N) 2,089 4.8 -9.6°
Enters shadow 08:47:47 - 1° (N) 2,861 5.6 -9.9°
